Regional Weather Roundup
Issued by NWS

Home | Current Version | Previous Version | Text Only | Print | Product List | Glossary On
Versions: 1 2 3 4 5 6 7 8 9 10 11 12 13 14 15 16 17 18 19 20 21 22 23 24 25 26 27 28 29 30 31 32 33 34 35 36 37 38 39 40 41 42 43 44 45 46 47 48 49 50
000
ASUS44 KJAN 021503
RWRMS

MISSISSIPPI HOURLY WEATHER ROUNDUP
NATIONAL WEATHER SERVICE JACKSON MS
1000 AM CDT WED SEP 02 2015

NOTE: "FAIR: INDICATES FEW OR NO CLOUDS BELOW 12,000 FEET WITH NO
SIGNIFICANT WEATHER AND/OR OBSTRUCTIONS TO VISIBILITY.

MSZ001>002-007>008-010>013-018>021-025>028-034>036-021600-
NORTHWEST MISSISSIPPI

CITY           SKY/WX    TMP DP  RH WIND       PRES   REMARKS
CLARKSDALE     FAIR      79  75  89 CALM      30.11S
CLEVELAND      FAIR      79  74  86 E6        30.09R
GREENWOOD      CLOUDY    79  70  74 VRB3      30.09S
GREENVILLE     CLOUDY    79  73  82 E3        30.08S HAZE
OLIVE BRANCH   MOSUNNY   84  73  70 CALM      30.11F HX  91
OXFORD         FAIR      81  72  74 NE6       30.13S
$$

MSZ003>006-009-014>017-022>024-029>033-037>039-021600-
NORTHEAST MISSISSIPPI

CITY           SKY/WX    TMP DP  RH WIND       PRES   REMARKS
COLUMBUS AFB   NOT AVBL
CORINTH        FAIR      77  73  88 CALM      30.12S
GOLDN TRIANGLE SUNNY     82  72  69 CALM      30.09S
STARKVILLE     FAIR      81  70  69 CALM      30.09F
TUPELO         CLOUDY    80  71  74 SE3       30.11S
$$

MSZ040-058-021600-
CENTRAL MISSISSIPPI

CITY           SKY/WX    TMP DP  RH WIND       PRES   REMARKS
JACKSON INTL   CLOUDY    79  72  79 CALM      30.09S
JACKSON HAWKNS CLOUDY    78  72  81 CALM      30.09S
MERIDIAN KEY   CLOUDY    82  71  69 CALM      30.09S
MERIDIAN NAS   CLOUDY    81  71  71 SW3       30.09S
VICKSBURG      CLOUDY    81  72  74 CALM      30.08F
$$

MSZ059>079-021600-
SOUTH MISSISSIPPI

CITY           SKY/WX    TMP DP  RH WIND       PRES   REMARKS
BROOKHAVEN     FAIR      82  72  69 CALM      30.11R
HATTIESBURG    PTSUNNY   83  72  69 CALM      30.10S
MCCOMB         CLOUDY    82  71  69 N5        30.09S
NATCHEZ        CLOUDY    79  72  78 N5        30.10R
PINE BELT      PTSUNNY   82  70  65 CALM      30.11S
$$

MSZ080>082-021600-
COASTAL MISSISSIPPI

CITY           SKY/WX    TMP DP  RH WIND       PRES   REMARKS
BAY ST LOUIS   MOSUNNY   84  70  61 CALM      30.08S
BILOXI         NOT AVBL
PASCAGOULA     SUNNY     87  69  54 CALM      30.08F HX  91
GULFPORT       MOSUNNY   86  71  60 E3        30.07S HX  91
$$



USA.gov is the U.S. government's official web portal to all federal, state and local government web resources and services.